This demonstration page uses our WeatherBlox Daily Observations layout. Learn more.

Left ArrowRight Arrow

Hourly Observations for October 5, 2021

Temp ( °F °C ) Dew Point ( °F °C ) Humidity (%) Winds ( mph kmh ) Pressure ( in mb ) Visibility ( mi km ) Precip ( " mm )
12:53 am 00:53 Clear 65 18.3 41 5 42 42 SE 7 11 29.99 1016 10 16 N/A
1:53 am 01:53 Clear 63 17.2 41 5 45 45 N N/A 29.99 1016 10 16 N/A
2:53 am 02:53 Clear 60 15.6 41 5 50 50 NE 3 6 29.99 1016 10 16 N/A
3:53 am 03:53 Clear 60 15.6 41 5 50 50 E 3 6 29.98 1015 10 16 N/A
4:53 am 04:53 Clear 58 14.4 42 5.6 56 56 E 5 7 29.97 1015 10 16 N/A
5:53 am 05:53 Clear 57 13.9 43 6.1 60 60 N N/A 29.99 1016 10 16 N/A
6:53 am 06:53 Clear 54 12.2 42 5.6 64 64 N 5 7 30.00 1016 10 16 N/A
7:53 am 07:53 Sunny 53 11.7 42 5.6 66 66 N 6 9 30.01 1016 10 16 N/A
8:53 am 08:53 Sunny 60 15.6 44 6.7 56 56 N 3 6 30.03 1017 10 16 N/A
9:53 am 09:53 Sunny 69 20.6 46 7.8 44 44 N N/A 30.04 1017 10 16 N/A
10:53 am 10:53 Sunny 75 23.9 46 7.8 36 36 VRB 3 6 30.03 1017 10 16 N/A
11:53 am 11:53 Sunny 81 27.2 47 8.3 30 30 WNW 7 11 30.02 1017 10 16 N/A
12:53 pm 12:53 Sunny 85 29.4 43 6.1 23 23 WSW 8 13 30.00 1016 10 16 N/A
1:53 pm 13:53 Sunny 86 30 42 5.6 21 21 undefined N/A 29.97 1015 9 14 N/A
2:53 pm 14:53 Sunny 86 30 41 5 20 20 N N/A 29.95 1014 9 14 N/A
3:53 pm 15:53 Partly Cloudy 86 30 41 5 20 20 undefined N/A 29.93 1014 10 16 N/A
4:53 pm 16:53 Sunny 88 31.1 41 5 19 19 E 5 7 29.92 1013 10 16 N/A
5:53 pm 17:53 Sunny 87 30.6 40 4.4 19 19 VRB 6 9 29.91 1013 10 16 N/A
6:53 pm 18:53 Sunny 86 30 40 4.4 20 20 WSW 6 9 29.92 1013 10 16 N/A
7:53 pm 19:53 Clear 80 26.7 39 3.9 23 23 WSW 7 11 29.93 1014 10 16 N/A
8:53 pm 20:53 Clear 76 24.4 39 3.9 26 26 W 7 11 29.94 1014 9 14 N/A
9:53 pm 21:53 Clear 71 21.7 39 3.9 31 31 NW 7 11 29.93 1014 10 16 N/A
10:53 pm 22:53 Clear 71 21.7 41 5 34 34 N N/A 29.93 1013 10 16 N/A
11:53 pm 23:53 Clear 67 19.4 38 3.3 35 35 N N/A 29.93 1013 10 16 N/A

Powered by AerisWeather